Sibiu, Romania

4:23 PM EEST on September 16, 2019 (GMT +0300)
Sibiu

Weather History for LRSB - August, 2019

Change the Weather History Date:

Saturday, August 17, 2019

  Actual Average (WUND) Record (WUND)
Temperature  
Mean Temperature 65 °F -  
Max Temperature 77 °F 74 °F - (-1)
Min Temperature 53 °F 50 °F - (-1)
Growing Degree Days 15 (Base 50)    
Moisture  
Dew Point 52 °F    
Average Humidity 62    
Maximum Humidity 88    
Minimum Humidity 23    
Precipitation  
Precipitation 0.00 in 0.08 in - ()
Sea Level Pressure  
Sea Level Pressure 30.04 in    
Wind  
Wind Speed 3 mph ()    
Max Wind Speed 9 mph    
Max Gust Speed -    
Visibility 8.4 miles    
Events      
Averages and records for this station are not official NWS values.
T = Trace of Precipitation, MM = Missing Value Source: Averaged Metar Reports

Daily Weather History Graph

Daily Weather History Graph

Search for Another Location

Airport or City:

Astronomy

Aug. 17, 2019 Rise Set
Actual Time 6:25 AM EEST 8:29 PM EEST
Civil Twilight 5:52 AM EEST 9:01 PM EEST
Nautical Twilight 5:12 AM EEST 9:40 PM EEST
Astronomical Twilight 4:28 AM EEST 10:24 PM EEST
Moon 9:43 PM EEST (8/17) 7:58 AM EEST (8/17)
Length of Visible Light 15h 08m
Length of Day
14h 03m
Full, 97% of the Moon is Illuminated
Aug 17
Full
Aug 23
Last Quarter
Aug 30
New
Sep 6
First Quarter
Sep 14
Full

Hourly Weather History & Observations

Time (EEST) Temp. Dew Point Humidity Pressure Visibility Wind Dir Wind Speed Gust Speed Precip Events Conditions
12:00 AM 62 °F 55 °F 72% 30.03 in 12 mi West 2.2 mph - -   Overcast
12:30 AM 60.8 °F 55.4 °F 82% 30.04 in 6.2 mi Variable 1.2 mph - N/A   Mostly Cloudy
1:00 AM 61 °F 55 °F 75% 30.04 in 12 mi SSE 2.2 mph - -   Partly Cloudy
1:00 AM 60.8 °F 55.4 °F 82% 30.04 in 6.2 mi Variable 1.2 mph - N/A   Mostly Cloudy
1:30 AM 59.0 °F 53.6 °F 82% 30.04 in 6.2 mi Variable 2.3 mph - N/A   Scattered Clouds
2:00 AM 59 °F 53 °F 75% 30.04 in 12 mi SW 2.2 mph - -   Partly Cloudy
3:00 AM 56 °F 52 °F 82% 30.05 in 12 mi WSW 6.7 mph - -   Partly Cloudy
3:00 AM 53.6 °F 50.0 °F 88% 30.04 in 6.2 mi WSW 3.5 mph - N/A   Partly Cloudy
3:30 AM 55.4 °F 50.0 °F 82% 30.04 in - WSW 5.8 mph - N/A   Clear
4:00 AM 56 °F 51 °F 78% 30.05 in 12 mi WSW 8.9 mph - -   Partly Cloudy
4:00 AM 55.4 °F 51.8 °F 88% 30.04 in 6.2 mi Variable 1.2 mph - N/A   Scattered Clouds
4:30 AM 55.4 °F 50.0 °F 82% 30.04 in - Variable 1.2 mph - N/A   Clear
5:00 AM 56 °F 51 °F 76% 30.05 in 12 mi WSW 8.9 mph - -   Partly Cloudy
5:00 AM 53.6 °F 50.0 °F 88% 30.04 in 6.2 mi South 2.3 mph - N/A   Partly Cloudy
5:30 AM 53.6 °F 50.0 °F 88% 30.04 in 6.2 mi WSW 3.5 mph - N/A   Scattered Clouds
6:00 AM 53.6 °F 50.0 °F 88% 30.04 in 6.2 mi NE 2.3 mph - N/A   Scattered Clouds
6:30 AM 55.4 °F 50.0 °F 82% 30.04 in 6.2 mi ENE 3.5 mph - N/A   Scattered Clouds
7:00 AM 53 °F 49 °F 81% 30.06 in 31 mi West 2.2 mph - -   Partly Cloudy
7:00 AM 55.4 °F 50.0 °F 82% 30.04 in 6.2 mi ENE 2.3 mph - N/A   Partly Cloudy
7:30 AM 55.4 °F 51.8 °F 88% 30.06 in 6.2 mi Variable 2.3 mph - N/A   Partly Cloudy
8:00 AM 56 °F 52 °F 81% 30.06 in 12 mi NNE 2.2 mph - -   Partly Cloudy
8:00 AM 59.0 °F 53.6 °F 82% 30.06 in 6.2 mi East 3.5 mph - N/A   Partly Cloudy
8:30 AM 59.0 °F 53.6 °F 82% 30.06 in 6.2 mi Variable 2.3 mph - N/A   Scattered Clouds
9:00 AM 60 °F 53 °F 69% 30.06 in 12 mi ESE 2.2 mph - -   Partly Cloudy
9:00 AM 62.6 °F 51.8 °F 68% 30.06 in 6.2 mi Variable 2.3 mph - N/A   Scattered Clouds
10:00 AM 65 °F 54 °F 58% 30.06 in 12 mi SSW 2.2 mph - -   Partly Cloudy
10:30 AM 66.2 °F 53.6 °F 64% 30.06 in 6.2 mi Variable 2.3 mph - N/A   Partly Cloudy
11:00 AM 68 °F 53 °F 49% 30.05 in 12 mi ESE 2.2 mph - -   Partly Cloudy
11:00 AM 69.8 °F 53.6 °F 56% 30.06 in 6.2 mi Variable 2.3 mph - N/A   Partly Cloudy
11:30 AM 71.6 °F 53.6 °F 53% 30.06 in 6.2 mi Variable 2.3 mph - N/A   Partly Cloudy
12:00 PM 69.8 °F 51.8 °F 53% 30.06 in 6.2 mi Variable 3.5 mph - N/A   Partly Cloudy
1:00 PM 71 °F 51 °F 38% 30.03 in 12 mi WSW 4.5 mph - -   Partly Cloudy
1:00 PM 73.4 °F 50.0 °F 44% 30.06 in 6.2 mi Variable 4.6 mph - N/A   Scattered Clouds
1:30 PM 73.4 °F 46.4 °F 38% 30.06 in 6.2 mi Variable 4.6 mph - N/A   Scattered Clouds
2:00 PM 74 °F 45 °F 24% 30.02 in 12 mi NW 4.5 mph - -   Scattered Clouds
2:00 PM 73.4 °F 48.2 °F 41% 30.06 in 6.2 mi SW 5.8 mph - N/A   Scattered Clouds
2:30 PM 75.2 °F 46.4 °F 36% 30.04 in 6.2 mi North 6.9 mph - N/A   Scattered Clouds
3:00 PM 75 °F 45 °F 23% 30.00 in 12 mi North 4.5 mph - -   Scattered Clouds
3:00 PM 75.2 °F 50.0 °F 41% 30.04 in 6.2 mi Variable 4.6 mph - N/A   Scattered Clouds
4:00 PM 76 °F 49 °F 27% 29.99 in 12 mi WNW 4.5 mph - -   Partly Cloudy
4:00 PM 73.4 °F 48.2 °F 41% 30.04 in 6.2 mi West 6.9 mph - N/A   Scattered Clouds
4:30 PM 75.2 °F 48.2 °F 38% 30.04 in 6.2 mi NW 5.8 mph - N/A   Scattered Clouds
5:00 PM 75 °F 49 °F 28% 29.99 in 12 mi NW 6.7 mph - -   Partly Cloudy
5:00 PM 73.4 °F 48.2 °F 41% 30.04 in 6.2 mi NNW 3.5 mph - N/A   Scattered Clouds
5:30 PM 73.4 °F 48.2 °F 41% 30.04 in 6.2 mi NNW 4.6 mph - N/A   Scattered Clouds
6:00 PM 74 °F 48 °F 28% 29.99 in 12 mi NNW 4.5 mph - -   Partly Cloudy
6:30 PM 75.2 °F 50.0 °F 41% 30.04 in 6.2 mi West 4.6 mph - N/A   Scattered Clouds
7:00 PM 74 °F 49 °F 31% 29.99 in 12 mi West 4.5 mph - -   Partly Cloudy
7:00 PM 73.4 °F 50.0 °F 44% 30.04 in 6.2 mi WNW 6.9 mph - N/A   Scattered Clouds
8:00 PM 71 °F 50 °F 37% 30.00 in 12 mi WNW 4.5 mph - -   Partly Cloudy
8:00 PM 68.0 °F 55.4 °F 64% 30.04 in 6.2 mi Variable 2.3 mph - N/A   Scattered Clouds
8:30 PM 66.2 °F 55.4 °F 68% 30.04 in 6.2 mi West 5.8 mph - N/A   Scattered Clouds
9:00 PM 67 °F 56 °F 59% 30.02 in 12 mi WSW 4.5 mph - -   Partly Cloudy
9:00 PM 66.2 °F 55.4 °F 68% 30.04 in 6.2 mi SW 4.6 mph - N/A   Scattered Clouds
9:30 PM 64.4 °F 57.2 °F 77% 30.04 in 6.2 mi SW 3.5 mph - N/A   Scattered Clouds
10:00 PM 64 °F 56 °F 68% 30.04 in 12 mi SW 2.2 mph - -   Partly Cloudy
11:00 PM 62 °F 55 °F 71% 30.04 in 12 mi WSW 4.5 mph - -   Partly Cloudy
11:00 PM 60.8 °F 55.4 °F 82% 30.04 in 6.2 mi South 2.3 mph - N/A   Scattered Clouds
11:30 PM 62.6 °F 55.4 °F 77% 30.06 in 6.2 mi Variable 1.2 mph - N/A   Scattered Clouds